Year,Month,Day,Hour,Minute,Value (Times are PST for temperature in C)
2020,10,03,00,00,14.10
2020,10,03,00,01,14.10
2020,10,03,00,02,14.10
2020,10,03,00,03,14.10
2020,10,03,00,04,14.10
2020,10,03,00,05,14.10
2020,10,03,00,06,14.10
2020,10,03,00,07,14.10
2020,10,03,00,08,14.00
2020,10,03,00,09,14.00
2020,10,03,00,10,14.00
2020,10,03,00,11,14.00
2020,10,03,00,12,14.00
2020,10,03,00,13,14.00
2020,10,03,00,14,14.00
2020,10,03,00,15,14.00
2020,10,03,00,16,14.00
2020,10,03,00,17,14.00
2020,10,03,00,18,14.00
2020,10,03,00,19,14.10
2020,10,03,00,20,14.10
2020,10,03,00,21,14.10
2020,10,03,00,22,14.10
2020,10,03,00,23,14.00
2020,10,03,00,24,14.00
2020,10,03,00,25,14.00
2020,10,03,00,26,14.00
2020,10,03,00,27,14.00
2020,10,03,00,28,14.00
2020,10,03,00,29,14.00
2020,10,03,00,30,14.00
2020,10,03,00,31,14.10
2020,10,03,00,32,14.10
2020,10,03,00,33,14.10
2020,10,03,00,34,14.10
2020,10,03,00,35,14.10
2020,10,03,00,36,14.10
2020,10,03,00,37,14.10
2020,10,03,00,38,14.10
2020,10,03,00,39,14.00
2020,10,03,00,40,14.00
2020,10,03,00,41,14.00
2020,10,03,00,42,14.00
2020,10,03,00,43,13.90
2020,10,03,00,44,13.90
2020,10,03,00,45,13.90
2020,10,03,00,46,13.90
2020,10,03,00,47,13.90
2020,10,03,00,48,13.90
2020,10,03,00,49,13.90
2020,10,03,00,50,13.90
2020,10,03,00,51,13.90
2020,10,03,00,52,13.90
2020,10,03,00,53,13.90
2020,10,03,00,54,14.00
2020,10,03,00,55,13.90
2020,10,03,00,56,13.90
2020,10,03,00,57,13.90
2020,10,03,00,58,13.90
2020,10,03,00,59,13.90
2020,10,03,01,00,13.90
2020,10,03,01,01,13.90
2020,10,03,01,02,13.90
2020,10,03,01,03,13.90
2020,10,03,01,04,13.90
2020,10,03,01,05,13.90
2020,10,03,01,06,13.80
2020,10,03,01,07,13.80
2020,10,03,01,08,13.80
2020,10,03,01,09,13.80
2020,10,03,01,10,13.80
2020,10,03,01,11,13.80
2020,10,03,01,12,13.80
2020,10,03,01,13,13.80
2020,10,03,01,14,13.80
2020,10,03,01,15,13.80
2020,10,03,01,16,13.80
2020,10,03,01,17,13.80
2020,10,03,01,18,13.80
2020,10,03,01,19,13.80
2020,10,03,01,20,13.80
2020,10,03,01,21,13.80
2020,10,03,01,22,13.80
2020,10,03,01,23,13.90
2020,10,03,01,24,14.00
2020,10,03,01,25,14.10
2020,10,03,01,26,14.20
2020,10,03,01,27,14.30
2020,10,03,01,28,14.20
2020,10,03,01,29,14.20
2020,10,03,01,30,14.20
2020,10,03,01,31,14.20
2020,10,03,01,32,14.10
2020,10,03,01,33,14.10
2020,10,03,01,34,14.10
2020,10,03,01,35,14.10
2020,10,03,01,36,14.10
2020,10,03,01,37,14.10
2020,10,03,01,38,14.10
2020,10,03,01,39,14.10
2020,10,03,01,40,14.10
2020,10,03,01,41,14.10
2020,10,03,01,42,14.10
2020,10,03,01,43,14.00
2020,10,03,01,44,14.00
2020,10,03,01,45,13.90
2020,10,03,01,46,13.90
2020,10,03,01,47,13.80
2020,10,03,01,48,13.70
2020,10,03,01,49,13.70
2020,10,03,01,50,13.70
2020,10,03,01,51,13.70
2020,10,03,01,52,13.70
2020,10,03,01,53,13.70
2020,10,03,01,54,13.70
2020,10,03,01,55,13.70
2020,10,03,01,56,13.70
2020,10,03,01,57,13.80
2020,10,03,01,58,13.80
2020,10,03,01,59,13.80
2020,10,03,02,00,13.90
2020,10,03,02,01,14.00
2020,10,03,02,02,14.00
2020,10,03,02,03,14.00
2020,10,03,02,04,14.00
2020,10,03,02,05,14.00
2020,10,03,02,06,13.90
2020,10,03,02,07,13.90
2020,10,03,02,08,13.90
2020,10,03,02,09,13.80
2020,10,03,02,10,13.80
2020,10,03,02,11,13.80
2020,10,03,02,12,13.90
2020,10,03,02,13,13.90
2020,10,03,02,14,13.80
2020,10,03,02,15,13.80
2020,10,03,02,16,13.80
2020,10,03,02,17,13.80
2020,10,03,02,18,13.70
2020,10,03,02,19,13.70
2020,10,03,02,20,13.70
2020,10,03,02,21,13.60
2020,10,03,02,22,13.60
2020,10,03,02,23,13.60
2020,10,03,02,24,13.60
2020,10,03,02,25,13.60
2020,10,03,02,26,13.60
2020,10,03,02,27,13.60
2020,10,03,02,28,13.60
2020,10,03,02,29,13.70
2020,10,03,02,30,13.70
2020,10,03,02,31,13.70
2020,10,03,02,32,13.70
2020,10,03,02,33,13.60
2020,10,03,02,34,13.60
2020,10,03,02,35,13.60
2020,10,03,02,36,13.50
2020,10,03,02,37,13.50
2020,10,03,02,38,13.50
2020,10,03,02,39,13.50
2020,10,03,02,40,13.50
2020,10,03,02,41,13.50
2020,10,03,02,42,13.50
2020,10,03,02,43,13.60
2020,10,03,02,44,13.60
2020,10,03,02,45,13.60
2020,10,03,02,46,13.60
2020,10,03,02,47,13.60
2020,10,03,02,48,13.50
2020,10,03,02,49,13.50
2020,10,03,02,50,13.50
2020,10,03,02,51,13.40
2020,10,03,02,52,13.40
2020,10,03,02,53,13.40
2020,10,03,02,54,13.40
2020,10,03,02,55,13.40
2020,10,03,02,56,13.40
2020,10,03,02,57,13.40
2020,10,03,02,58,13.30
2020,10,03,02,59,13.30
2020,10,03,03,00,13.40
2020,10,03,03,01,13.40
2020,10,03,03,02,13.50
2020,10,03,03,03,13.50
2020,10,03,03,04,13.50
2020,10,03,03,05,13.50
2020,10,03,03,06,13.50
2020,10,03,03,07,13.40
2020,10,03,03,08,13.40
2020,10,03,03,09,13.40
2020,10,03,03,10,13.40
2020,10,03,03,11,13.40
2020,10,03,03,12,13.40
2020,10,03,03,13,13.40
2020,10,03,03,14,13.40
2020,10,03,03,15,13.40
2020,10,03,03,16,13.40
2020,10,03,03,17,13.30
2020,10,03,03,18,13.30
2020,10,03,03,19,13.30
2020,10,03,03,20,13.30
2020,10,03,03,21,13.30
2020,10,03,03,22,13.30
2020,10,03,03,23,13.30
2020,10,03,03,24,13.30
2020,10,03,03,25,13.30
2020,10,03,03,26,13.30
2020,10,03,03,27,13.30
2020,10,03,03,28,13.30
2020,10,03,03,29,13.30
2020,10,03,03,30,13.40
2020,10,03,03,31,13.40
2020,10,03,03,32,13.40
2020,10,03,03,33,13.50
2020,10,03,03,34,13.50
2020,10,03,03,35,13.50
2020,10,03,03,36,13.50
2020,10,03,03,37,13.60
2020,10,03,03,38,13.60
2020,10,03,03,39,13.60
2020,10,03,03,40,13.50
2020,10,03,03,41,13.50
2020,10,03,03,42,13.40
2020,10,03,03,43,13.40
2020,10,03,03,44,13.40
2020,10,03,03,45,13.30
2020,10,03,03,46,13.30
2020,10,03,03,47,13.30
2020,10,03,03,48,13.30
2020,10,03,03,49,13.30
2020,10,03,03,50,13.30
2020,10,03,03,51,13.30
2020,10,03,03,52,13.30
2020,10,03,03,53,13.30
2020,10,03,03,54,13.30
2020,10,03,03,55,13.30
2020,10,03,03,56,13.30
2020,10,03,03,57,13.30
2020,10,03,03,58,13.30
2020,10,03,03,59,13.20
2020,10,03,04,00,13.20
2020,10,03,04,01,13.20
2020,10,03,04,02,13.10
2020,10,03,04,03,13.10
2020,10,03,04,04,13.10
2020,10,03,04,05,13.10
2020,10,03,04,06,13.10
2020,10,03,04,07,13.10
2020,10,03,04,08,13.10
2020,10,03,04,09,13.10
2020,10,03,04,10,13.00
2020,10,03,04,11,13.00
2020,10,03,04,12,13.10
2020,10,03,04,13,13.10
2020,10,03,04,14,13.10
2020,10,03,04,15,13.10
2020,10,03,04,16,13.10
2020,10,03,04,17,13.10
2020,10,03,04,18,13.00
2020,10,03,04,19,13.00
2020,10,03,04,20,13.00
2020,10,03,04,21,12.90
2020,10,03,04,22,12.90
2020,10,03,04,23,12.90
2020,10,03,04,24,12.80
2020,10,03,04,25,12.80
2020,10,03,04,26,12.80
2020,10,03,04,27,12.80
2020,10,03,04,28,12.80
2020,10,03,04,29,12.80
2020,10,03,04,30,12.80
2020,10,03,04,31,12.80
2020,10,03,04,32,12.80
2020,10,03,04,33,12.70
2020,10,03,04,34,12.70
2020,10,03,04,35,12.70
2020,10,03,04,36,12.70
2020,10,03,04,37,12.70
2020,10,03,04,38,12.70
2020,10,03,04,39,12.70
2020,10,03,04,40,12.70
2020,10,03,04,41,12.70
2020,10,03,04,42,12.70
2020,10,03,04,43,12.70
2020,10,03,04,44,12.70
2020,10,03,04,45,12.70
2020,10,03,04,46,12.70
2020,10,03,04,47,12.70
2020,10,03,04,48,12.80
2020,10,03,04,49,12.80
2020,10,03,04,50,12.80
2020,10,03,04,51,12.70
2020,10,03,04,52,12.70
2020,10,03,04,53,12.70
2020,10,03,04,54,12.70
2020,10,03,04,55,12.70
2020,10,03,04,56,12.70
2020,10,03,04,57,12.70
2020,10,03,04,58,12.80
2020,10,03,04,59,12.80
2020,10,03,05,00,12.80
2020,10,03,05,01,12.70
2020,10,03,05,02,12.70
2020,10,03,05,03,12.70
2020,10,03,05,04,12.70
2020,10,03,05,05,12.70
2020,10,03,05,06,12.70
2020,10,03,05,07,12.70
2020,10,03,05,08,12.70
2020,10,03,05,09,12.70
2020,10,03,05,10,12.70
2020,10,03,05,11,12.70
2020,10,03,05,12,12.70
2020,10,03,05,13,12.70
2020,10,03,05,14,12.70
2020,10,03,05,15,12.80
2020,10,03,05,16,12.80
2020,10,03,05,17,12.80
2020,10,03,05,18,12.80
2020,10,03,05,19,12.80
2020,10,03,05,20,12.70
2020,10,03,05,21,12.70
2020,10,03,05,22,12.70
2020,10,03,05,23,12.70
2020,10,03,05,24,12.70
2020,10,03,05,25,12.70
2020,10,03,05,26,12.70
2020,10,03,05,27,12.70
2020,10,03,05,28,12.70
2020,10,03,05,29,12.70
2020,10,03,05,30,12.70
2020,10,03,05,31,12.70
2020,10,03,05,32,12.70
2020,10,03,05,33,12.80
2020,10,03,05,34,12.80
2020,10,03,05,35,12.80
2020,10,03,05,36,12.90
2020,10,03,05,37,12.90
2020,10,03,05,38,12.90
2020,10,03,05,39,12.90
2020,10,03,05,40,12.90
2020,10,03,05,41,12.80
2020,10,03,05,42,12.80
2020,10,03,05,43,12.80
2020,10,03,05,44,12.70
2020,10,03,05,45,12.70
2020,10,03,05,46,12.70
2020,10,03,05,47,12.70
2020,10,03,05,48,12.70
2020,10,03,05,49,12.70
2020,10,03,05,50,12.70
2020,10,03,05,51,12.70
2020,10,03,05,52,12.70
2020,10,03,05,53,12.70
2020,10,03,05,54,12.70
2020,10,03,05,55,12.70
2020,10,03,05,56,12.70
2020,10,03,05,57,12.70
2020,10,03,05,58,12.70
2020,10,03,05,59,12.70
2020,10,03,06,00,12.70
2020,10,03,06,01,12.80
2020,10,03,06,02,12.70
2020,10,03,06,03,12.70
2020,10,03,06,04,12.60
2020,10,03,06,05,12.60
2020,10,03,06,06,12.60
2020,10,03,06,07,12.60
2020,10,03,06,08,12.60
2020,10,03,06,09,12.60
2020,10,03,06,10,12.60
2020,10,03,06,11,12.60
2020,10,03,06,12,12.70
2020,10,03,06,13,12.70
2020,10,03,06,14,12.70
2020,10,03,06,15,12.70
2020,10,03,06,16,12.70
2020,10,03,06,17,12.70
2020,10,03,06,18,12.70
2020,10,03,06,19,12.70
2020,10,03,06,20,12.70
2020,10,03,06,21,12.70
2020,10,03,06,22,12.60
2020,10,03,06,23,12.60
2020,10,03,06,24,12.60
2020,10,03,06,25,12.50
2020,10,03,06,26,12.50
2020,10,03,06,27,12.40
2020,10,03,06,28,12.40
2020,10,03,06,29,12.40
2020,10,03,06,30,12.40
2020,10,03,06,31,12.40
2020,10,03,06,32,12.30
2020,10,03,06,33,12.30
2020,10,03,06,34,12.30
2020,10,03,06,35,12.30
2020,10,03,06,36,12.30
2020,10,03,06,37,12.30
2020,10,03,06,38,12.30
2020,10,03,06,39,12.30
2020,10,03,06,40,12.20
2020,10,03,06,41,12.20
2020,10,03,06,42,12.10
2020,10,03,06,43,12.10
2020,10,03,06,44,12.10
2020,10,03,06,45,12.00
2020,10,03,06,46,11.90
2020,10,03,06,47,11.90
2020,10,03,06,48,11.90
2020,10,03,06,49,11.90
2020,10,03,06,50,11.90
2020,10,03,06,51,11.90
2020,10,03,06,52,11.90
2020,10,03,06,53,11.90
2020,10,03,06,54,11.90
2020,10,03,06,55,11.90
2020,10,03,06,56,11.90
2020,10,03,06,57,11.90
2020,10,03,06,58,11.90
2020,10,03,06,59,11.90
2020,10,03,07,00,11.90
2020,10,03,07,01,11.90
2020,10,03,07,02,11.90
2020,10,03,07,03,11.90
2020,10,03,07,04,11.90
2020,10,03,07,05,11.90
2020,10,03,07,06,11.90
2020,10,03,07,07,11.80
2020,10,03,07,08,11.80
2020,10,03,07,09,11.80
2020,10,03,07,10,11.80
2020,10,03,07,11,11.80
2020,10,03,07,12,11.80
2020,10,03,07,13,11.80
2020,10,03,07,14,11.70
2020,10,03,07,15,11.70
2020,10,03,07,16,11.60
2020,10,03,07,17,11.60
2020,10,03,07,18,11.50
2020,10,03,07,19,11.50
2020,10,03,07,20,11.50
2020,10,03,07,21,11.40
2020,10,03,07,22,11.40
2020,10,03,07,23,11.40
2020,10,03,07,24,11.50
2020,10,03,07,25,11.50
2020,10,03,07,26,11.50
2020,10,03,07,27,11.50
2020,10,03,07,28,11.60
2020,10,03,07,29,11.60
2020,10,03,07,30,11.60
2020,10,03,07,31,11.60
2020,10,03,07,32,11.60
2020,10,03,07,33,11.60
2020,10,03,07,34,11.60
2020,10,03,07,35,11.70
2020,10,03,07,36,11.70
2020,10,03,07,37,11.80
2020,10,03,07,38,11.80
2020,10,03,07,39,11.80
2020,10,03,07,40,11.90
2020,10,03,07,41,11.90
2020,10,03,07,42,11.90
2020,10,03,07,43,12.00
2020,10,03,07,44,12.00
2020,10,03,07,45,12.00
2020,10,03,07,46,12.00
2020,10,03,07,47,12.00
2020,10,03,07,48,12.00
2020,10,03,07,49,12.00
2020,10,03,07,50,11.90
2020,10,03,07,51,11.90
2020,10,03,07,52,12.00
2020,10,03,07,53,12.00
2020,10,03,07,54,12.10
2020,10,03,07,55,12.10
2020,10,03,07,56,12.20
2020,10,03,07,57,12.20
2020,10,03,07,58,12.20
2020,10,03,07,59,12.20
2020,10,03,08,00,12.30
2020,10,03,08,01,12.30
2020,10,03,08,02,12.30
2020,10,03,08,03,12.30
2020,10,03,08,04,12.30
2020,10,03,08,05,12.30
2020,10,03,08,06,12.40
2020,10,03,08,07,12.40
2020,10,03,08,08,12.40
2020,10,03,08,09,12.50
2020,10,03,08,10,12.50
2020,10,03,08,11,12.60
2020,10,03,08,12,12.60
2020,10,03,08,13,12.60
2020,10,03,08,14,12.60
2020,10,03,08,15,12.70
2020,10,03,08,16,12.70
2020,10,03,08,17,12.70
2020,10,03,08,18,12.70
2020,10,03,08,19,12.70
2020,10,03,08,20,12.70
2020,10,03,08,21,12.70
2020,10,03,08,22,12.70
2020,10,03,08,23,12.70
2020,10,03,08,24,12.80
2020,10,03,08,25,12.90
2020,10,03,08,26,12.90
2020,10,03,08,27,12.90
2020,10,03,08,28,12.90
2020,10,03,08,29,13.00
2020,10,03,08,30,13.00
2020,10,03,08,31,13.10
2020,10,03,08,32,13.10
2020,10,03,08,33,13.20
2020,10,03,08,34,13.30
2020,10,03,08,35,13.40
2020,10,03,08,36,13.50
2020,10,03,08,37,13.60
2020,10,03,08,38,13.70
2020,10,03,08,39,13.70
2020,10,03,08,40,13.80
2020,10,03,08,41,13.80
2020,10,03,08,42,13.90
2020,10,03,08,43,14.00
2020,10,03,08,44,14.00
2020,10,03,08,45,14.00
2020,10,03,08,46,14.00
2020,10,03,08,47,14.10
2020,10,03,08,48,14.10
2020,10,03,08,49,14.10
2020,10,03,08,50,14.10
2020,10,03,08,51,14.20
2020,10,03,08,52,14.20
2020,10,03,08,53,14.20
2020,10,03,08,54,14.30
2020,10,03,08,55,14.30
2020,10,03,08,56,14.30
2020,10,03,08,57,14.30
2020,10,03,08,58,14.30
2020,10,03,08,59,14.30
2020,10,03,09,00,14.30
2020,10,03,09,01,14.30
2020,10,03,09,02,14.30
2020,10,03,09,03,14.30
2020,10,03,09,04,14.30
2020,10,03,09,05,14.30
2020,10,03,09,06,14.30
2020,10,03,09,07,14.40
2020,10,03,09,08,14.40
2020,10,03,09,09,14.40
2020,10,03,09,10,14.40
2020,10,03,09,11,14.50
2020,10,03,09,12,14.50
2020,10,03,09,13,14.60
2020,10,03,09,14,14.60
2020,10,03,09,15,14.60
2020,10,03,09,16,14.60
2020,10,03,09,17,14.70
2020,10,03,09,18,14.70
2020,10,03,09,19,14.70
2020,10,03,09,20,14.80
2020,10,03,09,21,14.80
2020,10,03,09,22,14.80
2020,10,03,09,23,14.90
2020,10,03,09,24,14.90
2020,10,03,09,25,15.00
2020,10,03,09,26,15.00
2020,10,03,09,27,15.00
2020,10,03,09,28,15.00
2020,10,03,09,29,15.00
2020,10,03,09,30,15.00
2020,10,03,09,31,15.00
2020,10,03,09,32,15.00
2020,10,03,09,33,15.00
2020,10,03,09,34,15.00
2020,10,03,09,35,15.00
2020,10,03,09,36,15.00
2020,10,03,09,37,15.00
2020,10,03,09,38,15.00
2020,10,03,09,39,15.00
2020,10,03,09,40,15.00
2020,10,03,09,41,15.10
2020,10,03,09,42,15.20
2020,10,03,09,43,15.20
2020,10,03,09,44,15.30
2020,10,03,09,45,15.30
2020,10,03,09,46,15.30
2020,10,03,09,47,15.30
2020,10,03,09,48,15.30
2020,10,03,09,49,15.30
2020,10,03,09,50,15.30
2020,10,03,09,51,15.30
2020,10,03,09,52,15.40
2020,10,03,09,53,15.50
2020,10,03,09,54,15.50
2020,10,03,09,55,15.60
2020,10,03,09,56,15.70
2020,10,03,09,57,15.70
2020,10,03,09,58,15.80
2020,10,03,09,59,15.80
2020,10,03,10,00,15.80
2020,10,03,10,01,15.70
2020,10,03,10,02,15.70
2020,10,03,10,03,15.70
2020,10,03,10,04,15.70
2020,10,03,10,05,15.70
2020,10,03,10,06,15.70
2020,10,03,10,07,15.70
2020,10,03,10,08,15.70
2020,10,03,10,09,15.70
2020,10,03,10,10,15.70
2020,10,03,10,11,15.80
2020,10,03,10,12,15.80
2020,10,03,10,13,15.80
2020,10,03,10,14,15.80
2020,10,03,10,15,15.80
2020,10,03,10,16,15.80
2020,10,03,10,17,15.80
2020,10,03,10,18,15.90
2020,10,03,10,19,15.90
2020,10,03,10,20,15.90
2020,10,03,10,21,16.00
2020,10,03,10,22,16.00
2020,10,03,10,23,16.00
2020,10,03,10,24,16.00
2020,10,03,10,25,16.10
2020,10,03,10,26,16.10
2020,10,03,10,27,16.10
2020,10,03,10,28,16.20
2020,10,03,10,29,16.20
2020,10,03,10,30,16.30
2020,10,03,10,31,16.40
2020,10,03,10,32,16.50
2020,10,03,10,33,16.60
2020,10,03,10,34,16.60
2020,10,03,10,35,16.60
2020,10,03,10,36,16.60
2020,10,03,10,37,16.60
2020,10,03,10,38,16.60
2020,10,03,10,39,16.60
2020,10,03,10,40,16.60
2020,10,03,10,41,16.60
2020,10,03,10,42,16.50
2020,10,03,10,43,16.50
2020,10,03,10,44,16.60
2020,10,03,10,45,16.60
2020,10,03,10,46,16.60
2020,10,03,10,47,16.60
2020,10,03,10,48,16.60
2020,10,03,10,49,16.50
2020,10,03,10,50,16.50
2020,10,03,10,51,16.40
2020,10,03,10,52,16.40
2020,10,03,10,53,16.40
2020,10,03,10,54,16.40
2020,10,03,10,55,16.30
2020,10,03,10,56,16.30
2020,10,03,10,57,16.30
2020,10,03,10,58,16.30
2020,10,03,10,59,16.40
2020,10,03,11,00,16.50
2020,10,03,11,01,16.60
2020,10,03,11,02,16.60
2020,10,03,11,03,16.70
2020,10,03,11,04,16.70
2020,10,03,11,05,16.70
2020,10,03,11,06,16.60
2020,10,03,11,07,16.60
2020,10,03,11,08,16.60
2020,10,03,11,09,16.50
2020,10,03,11,10,16.60
2020,10,03,11,11,16.60
2020,10,03,11,12,16.70
2020,10,03,11,13,16.70
2020,10,03,11,14,16.80
2020,10,03,11,15,16.90
2020,10,03,11,16,17.00
2020,10,03,11,17,17.00
2020,10,03,11,18,17.10
2020,10,03,11,19,17.20
2020,10,03,11,20,17.30
2020,10,03,11,21,17.20
2020,10,03,11,22,17.20
2020,10,03,11,23,17.20
2020,10,03,11,24,17.10
2020,10,03,11,25,17.10
2020,10,03,11,26,17.00
2020,10,03,11,27,16.90
2020,10,03,11,28,16.90
2020,10,03,11,29,16.90
2020,10,03,11,30,16.90
2020,10,03,11,31,16.80
2020,10,03,11,32,16.90
2020,10,03,11,33,16.90
2020,10,03,11,34,16.80
2020,10,03,11,35,16.70
2020,10,03,11,36,16.70
2020,10,03,11,37,16.70
2020,10,03,11,38,16.70
2020,10,03,11,39,16.60
2020,10,03,11,40,16.60
2020,10,03,11,41,16.60
2020,10,03,11,42,16.70
2020,10,03,11,43,16.80
2020,10,03,11,44,16.80
2020,10,03,11,45,16.90
2020,10,03,11,46,16.90
2020,10,03,11,47,17.00
2020,10,03,11,48,17.00
2020,10,03,11,49,17.10
2020,10,03,11,50,17.20
2020,10,03,11,51,17.20
2020,10,03,11,52,17.20
2020,10,03,11,53,17.20
2020,10,03,11,54,17.20
2020,10,03,11,55,17.30
2020,10,03,11,56,17.30
2020,10,03,11,57,17.20
2020,10,03,11,58,17.10
2020,10,03,11,59,17.10
2020,10,03,12,00,17.10
2020,10,03,12,01,17.00
2020,10,03,12,02,17.00
2020,10,03,12,03,17.00
2020,10,03,12,04,17.10
2020,10,03,12,05,17.10
2020,10,03,12,06,17.00
2020,10,03,12,07,17.00
2020,10,03,12,08,17.00
2020,10,03,12,09,17.00
2020,10,03,12,10,16.90
2020,10,03,12,11,16.90
2020,10,03,12,12,17.00
2020,10,03,12,13,17.00
2020,10,03,12,14,17.00
2020,10,03,12,15,17.00
2020,10,03,12,16,17.00
2020,10,03,12,17,17.10
2020,10,03,12,18,17.10
2020,10,03,12,19,17.10
2020,10,03,12,20,17.10
2020,10,03,12,21,17.10
2020,10,03,12,22,17.10
2020,10,03,12,23,17.20
2020,10,03,12,24,17.20
2020,10,03,12,25,17.10
2020,10,03,12,26,17.20
2020,10,03,12,27,17.30
2020,10,03,12,28,17.30
2020,10,03,12,29,17.40
2020,10,03,12,30,17.40
2020,10,03,12,31,17.40
2020,10,03,12,32,17.40
2020,10,03,12,33,17.40
2020,10,03,12,34,17.50
2020,10,03,12,35,17.50
2020,10,03,12,36,17.40
2020,10,03,12,37,17.40
2020,10,03,12,38,17.40
2020,10,03,12,39,17.40
2020,10,03,12,40,17.40
2020,10,03,12,41,17.40
2020,10,03,12,42,17.50
2020,10,03,12,43,17.40
2020,10,03,12,44,17.40
2020,10,03,12,45,17.40
2020,10,03,12,46,17.40
2020,10,03,12,47,17.30
2020,10,03,12,48,17.40
2020,10,03,12,49,17.40
2020,10,03,12,50,17.40
2020,10,03,12,51,17.40
2020,10,03,12,52,17.50
2020,10,03,12,53,17.50
2020,10,03,12,54,17.60
2020,10,03,12,55,17.50
2020,10,03,12,56,17.60
2020,10,03,12,57,17.70
2020,10,03,12,58,17.70
2020,10,03,12,59,17.70
2020,10,03,13,00,17.70
2020,10,03,13,01,17.60
2020,10,03,13,02,17.60
2020,10,03,13,03,17.60
2020,10,03,13,04,17.60
2020,10,03,13,05,17.70
2020,10,03,13,06,17.70
2020,10,03,13,07,17.70
2020,10,03,13,08,17.70
2020,10,03,13,09,17.70
2020,10,03,13,10,17.60
2020,10,03,13,11,17.60
2020,10,03,13,12,17.60
2020,10,03,13,13,17.70
2020,10,03,13,14,17.70
2020,10,03,13,15,17.70
2020,10,03,13,16,17.80
2020,10,03,13,17,17.70
2020,10,03,13,18,17.70
2020,10,03,13,19,17.70
2020,10,03,13,20,17.70
2020,10,03,13,21,17.70
2020,10,03,13,22,17.80
2020,10,03,13,23,17.80
2020,10,03,13,24,17.80
2020,10,03,13,25,17.80
2020,10,03,13,26,17.90
2020,10,03,13,27,17.90
2020,10,03,13,28,18.00
2020,10,03,13,29,18.00
2020,10,03,13,30,18.10
2020,10,03,13,31,18.00
2020,10,03,13,32,18.00
2020,10,03,13,33,17.80
2020,10,03,13,34,17.80
2020,10,03,13,35,17.70
2020,10,03,13,36,17.70
2020,10,03,13,37,17.80
2020,10,03,13,38,17.80
2020,10,03,13,39,17.80
2020,10,03,13,40,17.90
2020,10,03,13,41,17.80
2020,10,03,13,42,17.80
2020,10,03,13,43,17.90
2020,10,03,13,44,17.90
2020,10,03,13,45,17.90
2020,10,03,13,46,18.00
2020,10,03,13,47,18.10
2020,10,03,13,48,18.10
2020,10,03,13,49,18.20
2020,10,03,13,50,18.20
2020,10,03,13,51,18.20
2020,10,03,13,52,18.20
2020,10,03,13,53,18.20
2020,10,03,13,54,18.20
2020,10,03,13,55,18.20
2020,10,03,13,56,18.20
2020,10,03,13,57,18.20
2020,10,03,13,58,18.20
2020,10,03,13,59,18.20
2020,10,03,14,00,18.10
2020,10,03,14,01,18.10
2020,10,03,14,02,18.20
2020,10,03,14,03,18.10
2020,10,03,14,04,18.20
2020,10,03,14,05,18.30
2020,10,03,14,06,18.50
2020,10,03,14,07,18.60
2020,10,03,14,08,18.60
2020,10,03,14,09,18.60
2020,10,03,14,10,18.70
2020,10,03,14,11,18.70
2020,10,03,14,12,18.70
2020,10,03,14,13,18.70
2020,10,03,14,14,18.80
2020,10,03,14,15,18.80
2020,10,03,14,16,18.80
2020,10,03,14,17,18.70
2020,10,03,14,18,18.70
2020,10,03,14,19,18.60
2020,10,03,14,20,18.50
2020,10,03,14,21,18.40
2020,10,03,14,22,18.40
2020,10,03,14,23,18.50
2020,10,03,14,24,18.50
2020,10,03,14,25,18.50
2020,10,03,14,26,18.50
2020,10,03,14,27,18.50
2020,10,03,14,28,18.50
2020,10,03,14,29,18.50
2020,10,03,14,30,18.50
2020,10,03,14,31,18.60
2020,10,03,14,32,18.70
2020,10,03,14,33,18.80
2020,10,03,14,34,18.80
2020,10,03,14,35,18.70
2020,10,03,14,36,18.60
2020,10,03,14,37,18.50
2020,10,03,14,38,18.40
2020,10,03,14,39,18.30
2020,10,03,14,40,18.20
2020,10,03,14,41,18.10
2020,10,03,14,42,18.10
2020,10,03,14,43,18.00
2020,10,03,14,44,18.00
2020,10,03,14,45,17.90
2020,10,03,14,46,17.90
2020,10,03,14,47,17.90
2020,10,03,14,48,17.90
2020,10,03,14,49,17.80
2020,10,03,14,50,17.70
2020,10,03,14,51,17.70
2020,10,03,14,52,17.70
2020,10,03,14,53,17.60
2020,10,03,14,54,17.60
2020,10,03,14,55,17.60
2020,10,03,14,56,17.60
2020,10,03,14,57,17.70
2020,10,03,14,58,17.70
2020,10,03,14,59,17.80
2020,10,03,15,00,17.80
2020,10,03,15,01,17.90
2020,10,03,15,02,17.90
2020,10,03,15,03,17.80
2020,10,03,15,04,17.80
2020,10,03,15,05,17.80
2020,10,03,15,06,17.70
2020,10,03,15,07,17.60
2020,10,03,15,08,17.60
2020,10,03,15,09,17.60
2020,10,03,15,10,17.60
2020,10,03,15,11,17.60
2020,10,03,15,12,17.60
2020,10,03,15,13,17.60
2020,10,03,15,14,17.60
2020,10,03,15,15,17.60
2020,10,03,15,16,17.60
2020,10,03,15,17,17.70
2020,10,03,15,18,17.70
2020,10,03,15,19,17.70
2020,10,03,15,20,17.70
2020,10,03,15,21,17.70
2020,10,03,15,22,17.70
2020,10,03,15,23,17.70
2020,10,03,15,24,17.70
2020,10,03,15,25,17.60
2020,10,03,15,26,17.50
2020,10,03,15,27,17.50
2020,10,03,15,28,17.40
2020,10,03,15,29,17.40
2020,10,03,15,30,17.40
2020,10,03,15,31,17.50
2020,10,03,15,32,17.50
2020,10,03,15,33,17.50
2020,10,03,15,34,17.50
2020,10,03,15,35,17.40
2020,10,03,15,36,17.30
2020,10,03,15,37,17.30
2020,10,03,15,38,17.30
2020,10,03,15,39,17.30
2020,10,03,15,40,17.30
2020,10,03,15,41,17.40
2020,10,03,15,42,17.40
2020,10,03,15,43,17.40
2020,10,03,15,44,17.40
2020,10,03,15,45,17.50
2020,10,03,15,46,17.60
2020,10,03,15,47,17.60
2020,10,03,15,48,17.50
2020,10,03,15,49,17.50
2020,10,03,15,50,17.50
2020,10,03,15,51,17.40
2020,10,03,15,52,17.40
2020,10,03,15,53,17.50
2020,10,03,15,54,17.60
2020,10,03,15,55,17.70
2020,10,03,15,56,17.70
2020,10,03,15,57,17.80
2020,10,03,15,58,17.80
2020,10,03,15,59,17.90
2020,10,03,16,00,17.90
2020,10,03,16,01,18.00
2020,10,03,16,02,18.10
2020,10,03,16,03,18.10
2020,10,03,16,04,18.10
2020,10,03,16,05,18.10
2020,10,03,16,06,18.20
2020,10,03,16,07,18.20
2020,10,03,16,08,18.30
2020,10,03,16,09,18.30
2020,10,03,16,10,18.30
2020,10,03,16,11,18.30
2020,10,03,16,12,18.30
2020,10,03,16,13,18.20
2020,10,03,16,14,18.10
2020,10,03,16,15,18.10
2020,10,03,16,16,18.10
2020,10,03,16,17,18.10
2020,10,03,16,18,18.00
2020,10,03,16,19,18.00
2020,10,03,16,20,18.00
2020,10,03,16,21,18.10
2020,10,03,16,22,18.10
2020,10,03,16,23,18.10
2020,10,03,16,24,18.10
2020,10,03,16,25,18.10
2020,10,03,16,26,18.00
2020,10,03,16,27,17.90
2020,10,03,16,28,17.90
2020,10,03,16,29,17.80
2020,10,03,16,30,17.80
2020,10,03,16,31,17.80
2020,10,03,16,32,17.80
2020,10,03,16,33,17.80
2020,10,03,16,34,17.80
2020,10,03,16,35,17.90
2020,10,03,16,36,17.90
2020,10,03,16,37,17.90
2020,10,03,16,38,17.90
2020,10,03,16,39,17.90
2020,10,03,16,40,18.00
2020,10,03,16,41,18.00
2020,10,03,16,42,18.10
2020,10,03,16,43,18.10
2020,10,03,16,44,18.20
2020,10,03,16,45,18.20
2020,10,03,16,46,18.30
2020,10,03,16,47,18.40
2020,10,03,16,48,18.40
2020,10,03,16,49,18.40
2020,10,03,16,50,18.40
2020,10,03,16,51,18.40
2020,10,03,16,52,18.30
2020,10,03,16,53,18.30
2020,10,03,16,54,18.30
2020,10,03,16,55,18.20
2020,10,03,16,56,18.20
2020,10,03,16,57,18.20
2020,10,03,16,58,18.20
2020,10,03,16,59,18.30
2020,10,03,17,00,18.30
2020,10,03,17,01,18.20
2020,10,03,17,02,18.20
2020,10,03,17,03,18.20
2020,10,03,17,04,18.20
2020,10,03,17,05,18.10
2020,10,03,17,06,18.10
2020,10,03,17,07,18.10
2020,10,03,17,08,18.10
2020,10,03,17,09,18.10
2020,10,03,17,10,18.10
2020,10,03,17,11,18.10
2020,10,03,17,12,18.10
2020,10,03,17,13,18.10
2020,10,03,17,14,18.10
2020,10,03,17,15,18.20
2020,10,03,17,16,18.20
2020,10,03,17,17,18.20
2020,10,03,17,18,18.20
2020,10,03,17,19,18.20